View from above orbital plane
|
View from above satellite
|
Ground track
|
The orbit data is extracted from the following two-line orbital elements,
1 31598U 07023A 21055.76462937 .00000244 00000-0 37149-4 0 9993
2 31598 97.8861 241.2573 0001516 94.0649 266.0727 14.82154344742207
Epoch (UTC): | 24 February 2021 18:21:03 |
Eccentricity: | 0.0001516 |
inclination: | 97.8861° |
perigee height: | 621 km |
apogee height: | 623 km |
right ascension of ascending node: | 241.2573° |
argument of perigee: | 94.0649° |
revolutions per day: | 14.82154344 |
mean anomaly at epoch: | 266.0727° |
orbit number at epoch: | 74220 |
The dashed part of the orbit path shows where the satellite is in the earth's shadow,
|
|